Location: Austin
(30.3000°N, 97.7500°W)
Time: 05:18:09
(UTC-06:00)

Cosmos 614 Rocket - Pass Details

Date: 03 March 2026
Orbit: 727 x 758 km, 74.1° (Epoch: 5 March)

Event Time Altitude Azimuth Distance (km) Brightness Sun altitude
Rises 19:04:06 0° 185° (S) 3,136 7.3 -7.9°
Reaches altitude 10° 19:06:27 10° 181° (S) 2,221 6.5 -8.4°
Maximum altitude 19:11:22 58° 103° (ESE) 858 4.0 -9.4°
Drops below altitude 10° 19:16:21 10° 25° (NNE) 2,251 6.2 -10.5°
Sets 19:18:45 0° 22° (NNE) 3,183 7.0 -11.0°
